Date,TemperatureHighF,TemperatureAvgF,TemperatureLowF,DewpointHighF,DewpointAvgF,DewpointLowF,HumidityHigh,HumidityAvg,HumidityLow,PressureMaxIn,PressureMinIn,WindSpeedMaxMPH,WindSpeedAvgMPH,GustSpeedMaxMPH,PrecipitationSumIn
2013-6-1,73.1,54.3,35.2,47.0,36.4,29.8,82,55,21,31.16,30.75,7,1,7,0.00
2013-6-2,59.9,51.0,44.8,48.3,42.9,36.1,91,75,55,30.77,30.62,19,1,19,0.25
2013-6-3,67.3,53.8,45.3,49.3,44.5,40.9,92,73,41,30.88,30.72,17,2,20,0.01
2013-6-4,69.3,55.8,44.1,47.9,44.2,40.3,92,68,39,31.03,30.86,12,1,12,0.00
2013-6-5,81.8,60.8,40.4,57.0,43.8,36.3,90,58,25,30.96,30.65,10,1,10,0.00
2013-6-6,84.7,66.7,50.1,56.1,45.9,38.9,78,50,27,30.81,30.58,9,0,9,0.00
2013-6-7,81.6,67.1,53.0,57.3,48.1,42.5,78,53,31,30.69,30.49,18,2,18,0.00
2013-6-8,81.9,69.0,50.6,47.4,40.1,33.5,69,37,20,30.75,30.53,25,2,25,0.00
2013-6-9,85.2,67.4,47.4,52.5,40.7,27.5,77,43,13,30.67,30.43,24,2,25,0.00
2013-6-10,79.5,63.0,43.3,47.8,40.6,35.4,78,47,24,30.64,30.36,18,3,19,0.00
2013-6-11,81.3,63.5,48.7,55.1,44.0,38.7,79,51,27,30.67,30.41,19,2,19,0.00
2013-6-12,72.2,60.2,47.9,50.7,45.9,42.4,83,61,41,30.72,30.60,23,6,23,0.00
2013-6-13,61.3,52.4,44.9,49.5,46.4,40.5,93,81,56,30.91,30.64,17,1,17,0.50
2013-6-14,63.9,52.4,44.7,45.5,42.1,36.8,92,70,40,30.97,30.84,22,2,22,0.03
2013-6-15,80.2,59.0,39.2,48.1,40.3,32.2,88,56,19,30.97,30.64,11,0,11,0.00
2013-6-16,81.2,62.6,43.1,54.8,44.2,36.6,85,54,29,30.84,30.65,16,2,16,0.00
2013-6-17,88.3,67.8,46.5,53.9,46.6,39.2,86,51,18,30.79,30.47,10,1,10,0.00
2013-6-18,81.5,65.0,49.7,59.0,50.1,42.8,81,60,34,30.53,30.32,17,2,17,0.00
2013-6-19,61.9,55.4,50.4,52.6,48.6,42.6,92,78,63,30.63,30.28,14,1,14,0.40
2013-6-20,63.2,53.2,45.4,46.0,41.6,38.5,85,66,46,30.89,30.63,23,6,23,0.00
2013-6-21,70.1,54.8,40.6,47.4,42.0,35.8,93,66,34,30.96,30.76,14,1,14,0.00
2013-6-22,69.8,56.2,42.8,48.9,43.4,39.5,92,65,36,30.89,30.72,13,0,13,0.00
2013-6-23,78.8,59.9,40.0,55.3,44.8,35.8,89,61,28,30.77,30.38,9,0,9,0.00
2013-6-24,73.3,61.1,54.6,58.8,52.8,46.7,94,75,50,30.45,30.29,17,1,17,0.22
2013-6-25,75.1,61.6,53.4,56.6,52.2,45.3,94,74,37,30.63,30.42,16,1,16,0.01
2013-6-26,72.5,60.9,53.8,59.1,53.6,50.9,94,78,49,30.89,30.60,17,2,17,0.07
2013-6-27,88.6,68.4,50.9,62.9,54.7,48.1,94,66,29,30.99,30.78,11,0,11,0.01
2013-6-28,89.8,71.8,54.6,65.8,55.9,48.5,84,60,35,31.00,30.70,10,1,11,0.00
2013-6-29,88.8,71.2,56.7,64.8,58.2,51.5,89,66,39,30.85,30.57,15,1,15,0.00
2013-6-30,93.8,75.4,59.0,65.8,60.5,55.2,93,64,33,30.77,30.61,11,1,11,0.00